Location: Dunedin
(45.8900°S, 170.5000°E)
Time: 03:47:26
(UTC+12:00)

ISS - Visible Passes

Search period start: 24 August 2017 00:00
Search period end: 03 September 2017 00:00
Orbit: 401 x 408 km, 51.6° (Epoch: 24 August)

Date Brightness Start Highest point End Pass type
(mag) Time Alt. Az. Time Alt. Az. Time Alt. Az.
27 Aug -2.3 19:42:31 10° NNW 19:44:33 25° N 19:44:33 25° N visible
28 Aug -2.0 18:51:03 10° N 18:53:18 17° NE 18:54:53 13° ENE visible
28 Aug -1.6 20:26:06 10° WNW 20:27:33 24° WNW 20:27:33 24° WNW visible
29 Aug -3.8 19:33:50 10° NW 19:37:06 62° NNE 19:37:45 48° E visible
30 Aug -2.9 18:41:46 10° NNW 18:44:50 35° NE 18:47:50 11° ESE visible
30 Aug -2.4 20:18:01 10° W 20:20:30 39° WSW 20:20:30 39° WSW visible
31 Aug -3.6 19:25:30 10° WNW 19:28:49 70° SSW 19:30:29 27° SE visible
31 Aug -0.4 21:02:40 10° WSW 21:03:08 13° WSW 21:03:08 13° WSW visible
01 Sep -3.8 18:33:08 10° NW 18:36:26 74° NNE 18:39:47 10° ESE visible
01 Sep -2.4 20:10:03 10° W 20:13:01 34° SSW 20:13:01 34° SSW visible
02 Sep -2.9 19:17:25 10° W 19:20:37 43° SSW 19:22:51 17° SE visible
02 Sep -0.7 20:54:37 10° WSW 20:55:30 16° SW 20:55:30 16° SW visible
